Theta_e
330 331 332 331 331 331 332 332 331 332 330 328 326 323 323 322 323 320 322 321 317 317 318 318 320 321 317 318 319 319 315 315 312 316 321 322 327 329 329 332 332 329 330
329 330 330 331 332 333 330 327 328 327 328 327 326 325 323 321 322 319 318 318 316 314 315 317 317 318 319 317 316 316 316 316 315 312 316 318 321 327 327 326 331 332 329
324 325 328 330 329 328 327 327 326 323 323 323 323 321 319 318 315 317 317 316 315 314 314 316 316 317 317 317 316 314 314 315 314 313 313 316 318 323 323 323 321 323 328
322 322 321 321 321 319 318 318 319 320 318 317 318 317 318 317 317 315 314 314 314 313 314 315 315 315 315 315 314 313 313 313 312 311 311 312 316 319 319 314 314 316 316
320 317 316 317 319 317 319 320 319 320 318 317 316 316 316 316 309 308 310 310 312 311 313 313 313 316 316 315 312 309 308 309 310 310 309 310 313 312 312 313 311 312 312
321 319 319 320 320 319 320 318 318 317 316 316 315 313 313 311 303 304 306 309 310 310 311 311 312 313 313 313 313 310 309 305 306 308 308 308 310 311 312 312 309 307 304
319 317 316 317 316 315 316 313 314 315 315 313 313 313 312 311 301 301 303 307 309 309 309 310 309 309 307 306 307 309 308 308 309 308 308 308 308 311 311 309 308 307 306
316 314 314 312 313 313 310 310 311 310 310 311 312 311 311 306 300 300 301 308 307 308 308 308 309 308 302 302 305 305 305 306 308 308 307 307 308 309 310 309 309 309 310
312 310 312 311 310 310 309 310 311 311 310 309 311 310 309 308 300 299 301 305 305 306 306 308 308 307 299 299 303 303 303 305 307 305 305 304 303 303 304 306 305 305 305
310 310 310 310 310 309 310 310 311 310 309 309 309 309 307 307 298 299 300 302 302 301 303 304 302 300 299 298 300 302 301 302 302 302 305 307 308 310 307 309 309 306 306
311 310 309 309 310 311 311 311 311 310 309 309 308 309 308 304 303 299 299 301 300 300 301 303 306 298 297 297 296 300 302 299 301 303 304 305 307 308 308 309 311 308 306
310 309 308 308 308 307 310 310 311 310 304 303 306 305 304 305 300 299 297 298 299 301 301 304 304 297 296 296 297 299 297 298 301 303 302 301 302 303 304 306 307 309 311
309 309 308 309 307 308 308 308 304 304 300 300 300 299 299 301 302 300 297 297 300 301 302 300 299 297 296 298 299 298 298 300 301 298 301 301 302 303 304 303 305 307 308
308 307 308 306 307 309 306 306 305 302 300 299 298 298 299 300 300 300 300 300 300 302 300 302 303 300 299 299 300 301 302 302 299 299 300 301 302 302 301 301 300 302 302
309 306 307 307 307 308 308 307 305 306 301 300 300 299 298 298 297 294 294 297 298 297 295 303 303 301 298 297 298 298 299 299 299 298 300 300 300 299 298 300 300 299 298
307 305 304 305 305 305 306 306 296 298 296 296 296 295 300 296 293 292 292 292 292 293 298 300 300 296 295 295 295 296 297 299 298 298 299 300 300 298 298 299 299 298 297
307 307 305 304 305 305 305 304 303 298 295 295 296 294 296 293 293 293 293 292 292 295 302 300 297 296 295 294 294 295 295 297 299 299 299 299 299 299 298 299 298 297 297
305 300 306 306 305 305 306 305 304 304 303 300 294 295 294 294 296 293 292 293 301 299 300 298 297 297 296 295 295 295 295 297 297 297 298 298 298 297 297 297 297 298 297
306 306 306 305 307 306 306 305 304 305 306 305 301 294 296 294 293 292 293 298 300 298 298 298 298 298 298 297 297 296 297 296 295 295 296 297 297 297 296 297 296 291 292
307 300 299 305 305 305 303 302 302 303 304 304 302 299 299 297 300 301 302 302 300 299 298 298 298 298 298 298 298 297 296 296 295 294 293 295 295 296 296 296 296 296 296
307 306 296 303 305 303 303 302 303 302 302 302 302 296 287 297 297 300 300 300 300 299 299 299 298 299 299 298 297 297 295 294 292 291 291 293 293 293 296 296 296 296 296
306 307 305 304 305 305 302 303 303 302 302 301 302 296 286 296 300 301 302 302 302 303 302 301 300 300 299 298 297 296 294 292 290 289 289 291 291 293 294 295 296 295 295
306 305 304 304 306 297 303 303 303 302 301 301 301 300 300 302 301 302 302 303 304 304 303 302 301 300 300 299 299 297 294 291 289 289 289 288 289 291 291 294 295 293 293
304 305 304 303 304 302 303 303 302 294 300 301 302 302 301 303 302 303 303 304 304 304 303 302 302 300 300 300 299 297 292 289 289 289 288 288 289 289 291 294 295 293 292
305 306 304 305 303 302 302 303 303 302 302 301 302 301 302 303 302 303 305 304 305 304 304 304 303 303 301 301 297 294 287 284 286 284 287 287 288 290 293 295 295 293 293
306 305 304 304 304 304 303 303 303 304 302 302 302 303 303 302 302 303 304 304 303 304 303 304 303 303 303 298 294 286 285 284 285 284 284 287 290 293 295 295 294 293 293
Wind_Speed
6 5 4 3 4 3 1 2 3 4 5 6 9 9 6 6 6 5 7 6 7 8 10 11 9 6 5 7 7 3 5 8 9 9 6 7 7 6 5 4 5 6 5
7 5 5 4 1 1 5 7 7 7 7 8 9 7 6 6 5 6 6 5 7 8 11 10 10 7 6 4 5 6 5 6 7 11 9 9 6 3 2 3 3 5 5
9 9 7 4 5 6 4 6 7 9 8 8 9 9 9 7 7 5 6 7 8 8 10 9 8 9 8 5 5 6 6 7 7 8 9 8 7 4 3 4 4 5 5
14 12 11 10 10 8 7 7 6 5 7 7 7 8 7 8 7 7 8 7 7 9 11 9 9 8 7 6 6 9 9 9 9 8 8 7 5 6 5 3 6 5 6
11 10 7 7 6 5 5 3 4 5 5 7 9 10 9 8 5 6 7 7 8 10 10 10 9 7 6 6 4 5 8 8 9 9 10 10 6 7 6 5 5 6 8
10 10 8 5 5 3 3 5 6 7 8 7 6 6 7 5 5 6 7 7 9 10 9 8 9 6 8 5 2 9 7 8 10 7 7 9 9 6 6 6 4 5 6
10 8 5 5 2 5 5 7 5 4 5 7 6 6 8 5 6 8 11 8 9 8 7 8 8 7 8 7 9 9 9 13 12 10 8 8 10 7 5 5 5 5 7
8 5 5 6 3 6 8 6 7 7 7 6 6 6 5 4 4 9 12 8 9 8 10 11 8 5 7 8 9 8 8 10 9 6 7 8 9 7 5 5 8 7 8
6 8 3 6 10 7 6 7 6 6 6 7 6 5 6 3 6 8 9 9 8 8 8 6 5 6 5 6 8 9 10 9 9 16 16 16 14 13 11 6 7 7 9
5 6 11 8 7 9 7 6 6 7 7 7 7 6 8 6 6 5 8 7 8 8 10 7 7 4 8 8 6 8 9 8 10 12 13 13 10 8 9 4 5 7 7
9 8 8 7 5 4 5 5 5 5 5 5 6 5 4 5 3 1 7 7 7 8 8 8 5 5 7 8 6 7 9 7 10 8 7 7 6 5 4 5 4 4 4
6 6 5 2 3 4 4 5 4 4 7 9 5 5 5 4 3 4 6 6 10 7 8 7 7 12 12 13 10 12 12 9 7 4 4 5 6 7 8 8 7 6 5
6 3 2 3 4 3 2 4 6 8 7 7 8 8 7 7 6 8 3 11 12 8 6 12 12 14 14 10 12 12 10 6 7 3 3 3 3 5 6 7 9 8 7
3 4 2 5 1 2 4 4 3 4 4 5 5 6 6 4 5 7 7 7 9 9 12 9 10 14 14 11 8 6 4 3 4 5 5 2 2 3 5 5 6 7 6
3 0 4 5 2 3 1 2 3 2 2 3 3 5 5 5 6 4 4 6 6 8 10 6 5 7 6 7 7 7 6 6 5 7 5 3 3 2 2 3 3 3 4
3 3 3 3 2 0 3 1 3 3 6 3 3 3 3 2 4 7 8 9 11 9 5 7 6 6 7 8 8 8 8 8 6 7 7 4 1 3 3 3 3 2 2
4 2 3 2 2 2 3 3 3 5 7 7 9 10 10 12 10 9 8 10 15 7 5 6 6 6 7 8 9 8 8 8 7 7 7 6 6 6 4 2 3 0 3
4 1 4 3 3 5 4 1 4 3 4 8 11 10 14 14 12 11 10 8 7 3 3 6 5 5 5 6 5 6 8 9 9 9 9 8 7 8 8 7 5 2 2
5 4 2 5 4 3 3 4 6 4 2 3 6 4 12 16 15 14 8 4 6 6 7 7 6 6 5 5 4 5 7 7 5 8 10 9 9 9 8 7 7 7 3
4 2 3 4 7 2 4 4 5 5 4 3 3 5 4 6 6 1 2 3 5 5 6 6 6 6 6 6 5 6 6 7 7 8 9 9 10 10 9 8 8 8 5
1 7 5 4 7 3 3 4 3 4 5 3 3 4 3 2 7 3 4 3 4 4 4 4 5 5 4 5 5 5 7 7 8 9 8 9 10 10 10 8 9 8 7
3 4 5 3 3 3 4 3 5 4 5 4 2 5 6 3 4 3 3 2 3 3 3 3 2 3 4 5 6 6 7 8 7 8 8 9 9 10 10 10 9 6 7
6 6 4 4 3 3 4 7 4 2 3 4 4 4 2 2 3 1 3 2 2 2 2 2 3 2 3 3 4 5 6 6 7 8 8 9 9 9 10 10 9 6 5
6 7 5 4 3 2 4 3 3 4 4 5 2 2 4 2 3 3 2 3 2 2 2 2 2 4 3 2 2 5 5 4 5 7 10 9 10 10 10 11 9 5 8
7 7 5 5 5 3 3 5 4 3 5 4 2 4 5 3 4 4 2 3 2 3 2 2 3 1 3 4 7 6 4 3 6 5 6 9 11 14 12 10 7 7 10
7 5 6 5 5 4 4 4 5 4 5 2 4 5 4 4 5 4 4 4 4 1 5 3 3 4 0 8 5 4 1 4 6 6 7 7 9 10 10 9 10 9 10
Wind_Direction
176 164 124 181 152 124 70 295 304 332 354 337 326 332 344 1 343 348 330 333 11 350 327 320 330 335 354 342 329 330 337 330 321 317 306 308 291 255 279 287 289 296 316
174 172 161 167 167 106 35 28 6 350 333 327 322 318 336 358 341 351 327 4 354 340 319 344 338 323 330 338 331 335 317 318 334 324 321 326 303 306 304 306 287 281 280
167 171 167 171 73 71 49 36 17 14 357 345 351 348 1 350 346 335 334 351 347 326 317 332 328 330 336 332 330 322 327 336 327 328 316 328 352 0 346 7 355 318 321
77 63 65 61 58 54 47 32 359 352 337 339 328 312 314 319 339 3 355 344 332 328 314 328 330 343 329 360 345 9 354 337 332 327 321 312 6 341 345 11 350 349 343
82 78 69 79 76 62 27 356 332 314 328 324 325 317 312 307 34 16 351 338 328 325 326 333 340 351 9 31 40 356 348 336 323 325 319 324 350 349 2 351 354 351 341
118 105 100 93 64 48 7 338 335 360 351 354 344 349 345 42 55 17 347 330 327 312 324 332 331 25 17 19 32 343 330 324 314 304 304 312 321 325 344 353 337 353 328
97 96 93 69 35 3 352 33 15 358 340 346 339 357 3 67 22 5 345 330 314 332 323 329 333 35 29 4 338 329 338 318 307 303 298 300 299 302 319 326 326 308 296
113 95 40 49 39 36 51 29 13 18 8 347 360 357 359 81 36 10 341 331 319 352 339 355 338 70 24 357 328 329 328 316 316 334 322 310 308 319 304 298 291 280 283
72 64 49 38 49 33 27 30 5 345 332 330 338 326 351 46 40 8 342 329 341 342 344 353 359 29 4 347 328 320 319 318 331 333 326 308 294 290 274 289 284 286 293
86 47 66 53 28 42 26 360 336 332 342 343 337 356 23 33 106 20 352 332 351 342 317 321 54 22 319 327 324 322 314 323 329 316 316 307 312 312 328 301 293 286 284
78 76 61 50 4 40 1 335 349 350 338 336 2 341 97 43 108 1 358 333 352 325 325 336 341 293 302 308 292 290 293 322 304 304 317 335 343 340 7 317 327 313 320
78 69 75 36 1 20 5 333 326 358 18 352 352 358 11 26 50 340 20 354 331 326 326 320 313 330 311 303 300 272 271 295 280 283 321 334 349 349 347 328 333 308 295
83 80 72 66 36 28 34 346 24 35 11 351 5 359 18 355 2 349 19 6 342 341 336 324 318 306 290 288 274 265 282 266 283 329 296 278 302 340 333 336 340 336 328
101 117 269 108 71 45 354 355 63 39 15 25 11 357 355 12 24 357 349 348 342 335 349 314 319 295 269 264 292 317 357 356 348 346 337 10 305 351 343 334 333 337 331
78 232 251 129 174 323 92 2 11 68 31 19 19 6 17 358 359 330 321 328 328 316 320 314 320 310 1 4 358 358 357 358 1 338 331 21 353 348 304 316 320 336 359
178 265 59 61 332 203 297 122 57 130 182 242 287 294 349 194 316 319 313 300 295 302 319 302 301 16 11 8 0 359 356 351 349 328 322 320 272 281 292 312 257 240 283
161 174 144 209 271 300 314 331 309 197 214 234 243 262 264 273 299 294 292 302 295 296 263 299 26 19 22 13 3 354 344 333 333 333 333 341 341 333 324 242 178 123 327
119 153 225 237 240 259 196 237 282 298 241 192 226 234 252 260 264 269 280 306 275 302 355 24 18 22 32 12 15 348 335 333 346 350 349 350 349 345 342 348 354 332 276
207 198 302 299 270 249 275 259 251 264 342 46 159 186 249 266 255 240 260 263 317 17 18 7 7 25 20 4 13 339 327 330 348 355 349 346 350 342 335 345 349 340 310
212 128 245 281 292 253 358 349 345 345 332 52 37 72 10 327 329 90 176 26 3 14 18 11 0 20 6 350 2 336 338 337 10 6 349 343 345 336 334 345 338 330 338
216 176 226 258 266 60 333 346 341 310 311 36 75 122 165 272 289 13 16 28 20 11 19 5 350 9 2 340 352 346 344 359 14 357 345 334 336 329 328 339 335 335 9
265 262 224 269 304 287 52 317 290 313 357 360 352 173 218 251 284 18 14 6 15 359 51 350 10 10 355 351 344 4 351 11 359 343 331 329 332 321 325 330 320 353 29
267 272 258 256 233 126 234 230 297 351 333 315 320 320 290 333 331 358 328 341 343 350 50 33 4 1 347 4 347 22 360 2 343 327 328 329 315 315 317 307 324 1 5
264 275 280 278 310 315 292 291 317 246 254 262 310 315 288 284 285 277 254 303 314 349 63 3 46 25 334 335 31 28 40 359 329 324 335 307 310 312 305 307 303 350 320
241 244 260 272 277 266 301 286 281 302 303 303 1 285 280 289 275 272 254 267 278 284 301 253 177 200 273 8 68 37 32 318 320 312 313 308 298 296 290 296 341 330 308
263 222 249 256 270 278 286 301 309 297 290 348 282 275 275 282 278 280 272 267 268 310 299 257 231 202 122 106 85 92 41 314 326 315 312 295 291 296 302 322 330 310 304